Terminal Aerodrome Forecast
Issued by NWS

Home | Current Version | Previous Version | Graphics & Text | Print | Product List | Glossary On
Versions: 1 2 3 4 5 6 7 8 9 10 11 12 13 14 15 16 17
061
FTUS41 KCLE 211935 AAB
TAFFDY
TAF AMD
KFDY 211935Z 2120/2218 24011KT P6SM SCT040 BKN250
     FM212130 24012KT 3SM -TSRA OVC025CB
      TEMPO 2122/2124 VRB35G45KT 1SM -TSRA OVC020CB
     FM220100 23005KT P6SM SCT040 BKN080
      TEMPO 2209/2212 5SM BR
     FM221200 24012KT P6SM VCSH BKN040=

USA.gov is the U.S. government's official web portal to all federal, state and local government web resources and services.